This is the latest recevied weather packets stored in our database for station/object IZ0DPP-10. If no packets are shown the sender has not sent any weather packets the latest 10 day(s).
| Time | Temp. | Humidity | Pressure | Rain* | Wind** | Luminosity | Snow |
|---|---|---|---|---|---|---|---|
| 1777451450 | 24.44° C | 100% | 1018 hPa | - | - | - | - |
| 1777450550 | 23.33° C | 100% | 1018 hPa | - | - | - | - |
| 1777449649 | 22.78° C | 100% | 1018.1 hPa | - | - | - | - |
| 1777448749 | 22.22° C | 100% | 1018 hPa | - | - | - | - |
| 1777447845 | 21.67° C | 100% | 1018.1 hPa | - | - | - | - |
| 1777446945 | 20.56° C | 100% | 1018.3 hPa | - | - | - | - |
| 1777446045 | 20.56° C | 100% | 1018.4 hPa | - | - | - | - |
| 1777445145 | 20° C | 100% | 1018.3 hPa | - | - | - | - |
| 1777444245 | 18.33° C | 100% | 1018.6 hPa | - | - | - | - |
| 1777443345 | 17.22° C | 100% | 1018.5 hPa | - | - | - | - |
| 1777442445 | 17.22° C | 100% | 1018.6 hPa | - | - | - | - |
| 1777441545 | 16.11° C | 100% | 1018.6 hPa | - | - | - | - |
| 1777440643 | 14.44° C | 100% | 1018.6 hPa | - | - | - | - |
| 1777439743 | 13.33° C | 100% | 1018.6 hPa | - | - | - | - |
| 1777438843 | 12.78° C | 100% | 1018.5 hPa | - | - | - | - |
| 1777437943 | 12.78° C | 100% | 1018.2 hPa | - | - | - | - |
| 1777437043 | 11.67° C | 100% | 1018.1 hPa | - | - | - | - |
| 1777436142 | 12.22° C | 100% | 1018 hPa | - | - | - | - |
| 1777435242 | 11.67° C | 100% | 1017.9 hPa | - | - | - | - |
| 1777434341 | 12.78° C | 100% | 1017.9 hPa | - | - | - | - |
| 1777433444 | 12.78° C | 100% | 1018.1 hPa | - | - | - | - |
| 1777432544 | 12.78° C | 100% | 1018.1 hPa | - | - | - | - |
| 1777431644 | 12.22° C | 100% | 1018.3 hPa | - | - | - | - |
| 1777430744 | 12.78° C | 100% | 1018.3 hPa | - | - | - | - |
| 1777429844 | 13.33° C | 100% | 1018.2 hPa | - | - | - | - |
* Rain since midnight (hover to see other rain measurements)
** Current wind speed in m/s (hover to see current wind gust speed)